GW0774 Weather Reports


time (UTC)temp
F
wind
direction
speed
knots
gust
knots
rain 1hr
in
rain 24hr
in
rain mn
in
humidity
%
barometer
mb
20260901081039 45 0 0.0 1.7 0.00 0.00 0.00 91 1013.0
20260901080539 45 0 0.0 1.7 0.00 0.00 0.00 91 1013.0
20260901080058 45 0 0.0 0.9 0.00 0.00 0.00 91 1012.9
20260901075539 45 0 0.0 1.7 0.00 0.00 0.00 91 1012.8
20260901075039 45 234 0.0 1.7 0.00 0.00 0.00 91 1012.5
20260901074603 44 234 0.0 0.9 0.00 0.00 0.00 90 1012.5
20260901074039 44 0 0.0 1.7 0.00 0.00 0.00 91 1012.6
20260901073539 44 234 0.0 1.7 0.00 0.00 0.00 90 1012.7
20260901073102 44 0 0.0 0.9 0.00 0.00 0.00 89 1012.7
20260901072543 44 0 0.0 1.7 0.00 0.00 0.00 89 1012.7
20260901072040 44 0 0.0 1.7 0.00 0.00 0.00 89 1012.7
20260901071557 44 0 0.9 1.7 0.00 0.00 0.00 88 1012.7
20260901071038 45 275 0.9 1.7 0.00 0.00 0.00 88 1012.7
20260901070538 45 272 0.9 1.7 0.00 0.00 0.00 87 1012.6
20260901070057 46 0 0.0 0.0 0.00 0.00 0.00 87 1012.5
20260901065539 46 0 0.0 0.0 0.00 0.00 0.00 87 1012.6
20260901065039 46 0 0.0 0.0 0.00 0.00 0.00 87 1012.6
20260901064553 47 0 0.0 0.0 0.00 0.00 0.00 87 1012.5
20260901064039 47 0 0.0 0.0 0.00 0.00 0.00 87 1012.6
20260901063538 47 0 0.0 0.0 0.00 0.00 0.00 86 1012.5
20260901063047 47 0 0.0 0.0 0.00 0.00 0.00 85 1012.3
20260901062540 47 0 0.0 0.0 0.00 0.00 0.00 85 1012.3
20260901062038 48 0 0.0 0.0 0.00 0.00 0.00 84 1012.4
20260901061556 48 0 0.0 0.0 0.00 0.00 0.00 83 1012.4
20260901061039 49 0 0.0 0.0 0.00 0.00 0.00 82 1012.4
20260901060540 49 0 0.0 0.0 0.00 0.00 0.00 81 1012.4
20260901060058 50 0 0.0 0.0 0.00 0.00 0.00 80 1012.3
20260901055539 51 0 0.0 0.9 0.00 0.00 0.00 80 1012.2
20260901055039 51 0 0.0 3.5 0.00 0.00 0.00 80 1012.2
20260901054553 51 0 0.0 3.5 0.00 0.00 0.00 79 1012.1
20260901054039 52 274 1.7 5.2 0.00 0.00 0.00 79 1012.2
20260901053541 52 267 1.7 5.2 0.00 0.00 0.00 79 1012.1
20260901053052 52 257 3.5 5.2 0.00 0.00 0.00 79 1012.3
20260901052538 52 281 1.7 5.2 0.00 0.00 0.00 78 1012.2
20260901052039 53 272 2.6 8.7 0.00 0.00 0.00 78 1012.2
20260901051559 53 275 3.5 8.7 0.00 0.00 0.00 77 1012.3
20260901051038 53 296 3.5 7.0 0.00 0.00 0.00 77 1012.2
20260901050540 53 290 3.5 7.8 0.00 0.00 0.00 76 1012.3
20260901050053 54 242 3.5 8.7 0.00 0.00 0.00 75 1012.3
20260901045536 54 253 3.5 8.7 0.00 0.00 0.00 74 1012.2
20260901045039 54 253 4.3 12.2 0.00 0.00 0.00 73 1012.2
20260901044547 54 246 7.0 12.2 0.00 0.00 0.00 73 1012.2
20260901044036 54 248 7.0 12.2 0.00 0.00 0.00 74 1012.2
20260901043537 54 244 7.0 11.3 0.00 0.00 0.00 74 1012.1
20260901043048 55 246 7.0 12.2 0.00 0.00 0.00 73 1012.1
20260901042536 55 263 7.8 12.2 0.00 0.00 0.00 72 1011.9
20260901042039 55 250 6.1 13.0 0.00 0.00 0.00 71 1011.9
20260901041559 55 249 7.0 13.9 0.00 0.00 0.00 71 1011.8
20260901041036 55 235 7.0 13.9 0.00 0.00 0.00 71 1011.8
20260901040537 55 232 7.0 13.0 0.00 0.00 0.00 71 1011.8
20260901040110 55 259 7.8 12.2 0.00 0.00 0.00 71 1011.8
20260901035536 55 242 7.0 12.2 0.00 0.00 0.00 69 1011.9
20260901035036 55 257 7.8 11.3 0.00 0.00 0.00 69 1011.8
20260901034549 56 263 5.2 10.4 0.00 0.00 0.00 69 1011.8
20260901034037 56 251 5.2 12.2 0.00 0.00 0.00 67 1011.8
20260901033615 56 254 6.1 13.0 0.00 0.00 0.00 68 1011.6
20260901033057 56 302 7.8 14.8 0.00 0.00 0.00 67 1011.5
20260901032538 56 271 7.0 14.8 0.00 0.00 0.00 69 1011.4
20260901032036 56 304 9.6 14.8 0.00 0.00 0.00 67 1011.3
20260901031556 56 290 6.1 13.0 0.00 0.00 0.00 67 1011.4
20260901031036 56 272 7.0 16.5 0.00 0.00 0.00 65 1011.4
20260901030536 56 237 6.1 16.5 0.00 0.00 0.00 66 1011.4
20260901030050 56 285 7.0 13.9 0.00 0.00 0.00 65 1011.3
20260901025539 56 263 6.1 13.9 0.00 0.00 0.00 67 1011.3
20260901025040 56 234 7.8 12.2 0.00 0.00 0.00 70 1011.3
20260901024600 56 253 6.1 13.9 0.00 0.00 0.00 68 1011.3
20260901024036 56 245 9.6 13.9 0.00 0.00 0.00 64 1011.3
20260901023538 57 310 7.8 13.0 0.00 0.00 0.00 67 1011.1
20260901023100 57 275 7.0 14.8 0.00 0.00 0.00 67 1011.1
20260901022536 56 241 8.7 14.8 0.00 0.00 0.00 67 1011.1
20260901022037 56 238 8.7 14.8 0.00 0.00 0.00 63 1010.9
20260901021557 56 229 7.0 14.8 0.00 0.00 0.00 61 1011.0
20260901021037 56 239 8.7 15.6 0.00 0.00 0.00 63 1011.0
20260901020536 55 246 7.8 16.5 0.00 0.00 0.00 66 1011.0
20260901020051 55 247 11.3 16.5 0.00 0.00 0.00 59 1011.1
20260901015537 55 238 10.4 17.4 0.00 0.00 0.00 64 1010.9
20260901015039 56 257 11.3 17.4 0.00 0.00 0.00 62 1011.0
20260901014602 56 234 10.4 14.8 0.00 0.00 0.00 63 1011.0
20260901014036 55 246 9.6 14.8 0.00 0.00 0.00 62 1011.1
20260901013540 55 228 11.3 16.5 0.00 0.00 0.00 62 1010.9
20260901013110 54 234 10.4 17.4 0.00 0.00 0.00 64 1011.0
20260901012536 55 234 13.0 17.4 0.00 0.00 0.00 63 1011.0
20260901012036 55 232 9.6 17.4 0.00 0.00 0.00 69 1011.0
20260901011558 55 244 12.2 17.4 0.00 0.00 0.00 61 1011.1
20260901011039 55 250 9.6 15.6 0.00 0.00 0.00 63 1011.2
20260901010536 55 242 11.3 15.6 0.00 0.00 0.00 65 1011.3
20260901010056 54 246 10.4 14.8 0.00 0.00 0.00 70 1011.3
20260901005541 53 232 9.6 13.0 0.00 0.00 0.00 66 1011.4
20260901005039 53 238 8.7 13.9 0.00 0.00 0.00 66 1011.4
20260901004554 53 253 9.6 13.9 0.00 0.00 0.00 65 1011.5
20260901004039 54 232 10.4 13.9 0.00 0.00 0.00 65 1011.5
20260901003539 54 236 10.4 14.8 0.00 0.00 0.00 66 1011.6
20260901003059 54 244 10.4 14.8 0.00 0.00 0.00 69 1011.6
20260901002540 54 240 8.7 13.0 0.00 0.00 0.00 74 1011.7
20260901002037 54 236 9.6 13.0 0.00 0.00 0.00 68 1011.8
20260901001556 53 248 7.8 12.2 0.00 0.00 0.00 69 1011.9
20260901001041 53 244 8.7 13.0 0.00 0.00 0.00 69 1011.9
20260901000536 53 240 7.8 13.0 0.00 0.00 0.00 69 1011.9
20260901000055 53 236 10.4 17.4 0.00 0.00 0.00 67 1011.8
20260831235536 54 232 9.6 17.4 0.00 0.00 0.00 65 1011.8
20260831235038 54 228 10.4 17.4 0.00 0.00 0.00 70 1011.8
20260831234555 54 228 8.7 12.2 0.00 0.00 0.00 64 1011.7
20260831234036 54 232 3.5 7.8 0.00 0.00 0.00 75 1011.6
20260831233540 54 231 4.3 7.8 0.00 0.00 0.00 75 1011.7
20260831233057 53 240 3.5 8.7 0.00 0.00 0.00 74 1011.7
20260831232536 53 239 4.3 8.7 0.00 0.00 0.00 75 1011.6
20260831232041 53 221 3.5 5.2 0.00 0.00 0.00 75 1011.7
20260831231556 52 234 3.5 5.2 0.00 0.00 0.00 75 1011.7
20260831231039 52 240 3.5 7.0 0.00 0.00 0.00 77 1011.6
20260831230536 52 223 3.5 7.0 0.00 0.00 0.00 79 1011.6
20260831230106 51 256 3.5 7.0 0.00 0.00 0.00 76 1011.6
20260831225538 51 236 2.6 4.3 0.00 0.00 0.00 76 1011.6
20260831225036 51 254 1.7 4.3 0.00 0.00 0.00 77 1011.5
20260831224550 51 206 0.9 3.5 0.00 0.00 0.00 75 1011.6
20260831224044 51 207 0.9 3.5 0.00 0.00 0.00 74 1011.4
20260831223542 51 109 1.7 3.5 0.00 0.00 0.00 75 1011.5
20260831223102 51 99 1.7 3.5 0.00 0.00 0.00 77 1011.4
20260831222539 50 86 0.0 3.5 0.00 0.00 0.00 77 1011.3
20260831222036 49 93 0.9 4.3 0.00 0.00 0.00 78 1011.3
20260831221624 49 92 1.7 5.2 0.00 0.00 0.00 76 1011.3
20260831221038 49 103 1.7 5.2 0.00 0.00 0.00 77 1011.2
20260831220536 48 90 0.0 6.1 0.00 0.00 0.00 79 1011.1
20260831220105 48 90 2.6 6.1 0.00 0.00 0.00 78 1011.1
20260831215539 47 108 1.7 4.3 0.00 0.00 0.00 81 1011.1
20260831215040 47 96 1.7 3.5 0.00 0.00 0.00 82 1011.2
20260831214559 47 92 1.7 3.5 0.00 0.00 0.00 80 1011.1
20260831214039 47 92 0.9 3.5 0.00 0.00 0.00 79 1011.2
20260831213537 47 92 0.9 2.6 0.00 0.00 0.00 78 1011.2
20260831213059 47 92 0.0 2.6 0.00 0.00 0.00 81 1011.1
20260831212537 47 91 0.0 2.6 0.00 0.00 0.00 80 1010.9
20260831212040 46 65 0.0 2.6 0.00 0.00 0.00 80 1010.8
20260831211554 46 55 0.9 3.5 0.00 0.00 0.00 79 1010.8
20260831211038 47 72 0.9 3.5 0.00 0.00 0.00 81 1010.7
20260831210536 46 88 0.9 3.5 0.00 0.00 0.00 83 1010.6
20260831210050 46 85 0.9 5.2 0.00 0.00 0.00 86 1010.5
20260831205539 45 89 1.7 5.2 0.00 0.00 0.00 86 1010.5
20260831205040 44 90 0.9 3.5 0.00 0.00 0.00 88 1010.6
20260831204604 44 88 0.9 3.5 0.00 0.00 0.00 90 1010.6
20260831204042 43 82 1.7 5.2 0.00 0.00 0.00 90 1010.6
20260831203540 43 0 0.9 5.2 0.00 0.00 0.00 93 1010.7
20260831203125 42 79 1.7 5.2 0.00 0.00 0.00 92 1010.7
20260831202538 41 0 1.7 2.6 0.00 0.00 0.00 92 1010.6
20260831202036 41 101 0.9 2.6 0.00 0.00 0.00 93 1010.6
20260831201557 40 99 1.7 2.6 0.00 0.00 0.00 93 1010.4
20260831201040 40 90 0.9 2.6 0.00 0.00 0.00 93 1010.2
20260831200539 40 101 1.7 4.3 0.00 0.00 0.00 93 1010.2
20260831200138 39 88 0.9 4.3 0.00 0.00 0.00 93 1010.3
20260831195541 39 96 1.7 1.7 0.00 0.00 0.00 93 1010.2
20260831195036 39 94 0.0 0.9 0.00 0.00 0.00 93 1010.0
20260831194620 39 94 0.0 0.9 0.00 0.00 0.00 94 1010.0
20260831194037 39 0 0.0 0.9 0.00 0.00 0.00 95 1010.0
20260831193535 38 0 0.0 2.6 0.00 0.00 0.00 95 1009.8
20260831193046 37 0 0.0 2.6 0.00 0.00 0.00 94 1009.8
20260831192543 36 94 0.9 2.6 0.00 0.00 0.00 94 1009.9
20260831192039 36 94 0.0 0.9 0.00 0.00 0.00 94 1009.8
20260831191559 36 0 0.0 0.9 0.00 0.00 0.00 94 1009.8
20260831191039 35 0 0.0 1.7 0.00 0.00 0.00 94 1009.5
20260831190540 35 94 0.0 2.6 0.00 0.00 0.00 94 1009.7
20260831190056 35 94 0.9 2.6 0.00 0.00 0.00 93 1009.5
20260831185537 35 93 1.7 2.6 0.00 0.00 0.00 92 1009.3
20260831185038 35 93 0.0 2.6 0.00 0.00 0.00 93 1009.2
20260831184552 36 0 0.9 2.6 0.00 0.00 0.00 93 1009.3
20260831184039 36 103 0.0 1.7 0.00 0.00 0.00 93 1009.3
20260831183540 36 0 0.0 0.9 0.00 0.00 0.00 93 1009.2
20260831183058 36 0 0.0 1.7 0.00 0.00 0.00 93 1008.9
20260831182540 36 0 0.0 3.5 0.00 0.00 0.00 94 1008.7
20260831182040 36 0 1.7 3.5 0.00 0.00 0.00 95 1008.7
20260831181551 36 106 0.9 1.7 0.00 0.00 0.00 95 1008.7
20260831181039 35 0 0.0 0.0 0.00 0.00 0.00 94 1008.7
20260831180539 35 0 0.0 1.7 0.00 0.00 0.00 94 1008.6
20260831175536 34 150 0.9 1.7 0.00 0.00 0.00 93 1008.6
20260831175037 35 153 0.0 0.9 0.00 0.00 0.00 93 1008.6
20260831174552 35 0 0.0 1.7 0.00 0.00 0.00 92 1008.4
20260831174039 35 153 0.9 1.7 0.00 0.00 0.00 93 1008.4
20260831173539 36 153 0.0 0.9 0.00 0.00 0.00 92 1008.5
20260831173103 36 0 0.0 0.9 0.00 0.00 0.00 93 1008.4
20260831172539 36 153 0.0 0.9 0.00 0.00 0.00 93 1008.4
20260831172041 36 154 0.0 0.0 0.00 0.00 0.00 92 1008.3
20260831171556 36 0 0.0 0.0 0.00 0.00 0.00 92 1008.5
20260831171038 36 0 0.0 0.0 0.00 0.00 0.00 93 1008.5
20260831170540 35 0 0.0 1.7 0.00 0.00 0.00 92 1008.5
20260831170052 35 0 0.0 1.7 0.00 0.00 0.00 91 1008.5
20260831165535 35 155 0.9 1.7 0.00 0.00 0.00 90 1008.5
20260831165037 36 155 0.0 0.9 0.00 0.00 0.00 91 1008.4
20260831164548 36 0 0.0 0.9 0.00 0.00 0.00 91 1008.1
20260831164039 37 0 0.0 0.9 0.00 0.00 0.00 92 1008.0
20260831163539 36 0 0.0 3.5 0.00 0.00 0.00 92 1008.0
20260831163057 36 109 1.7 3.5 0.00 0.00 0.00 90 1008.0
20260831162539 37 111 1.7 3.5 0.00 0.00 0.00 88 1008.0
20260831162038 38 67 0.0 1.7 0.00 0.00 0.00 90 1007.9
20260831161557 39 67 0.0 0.9 0.00 0.00 0.00 89 1007.6
20260831161038 39 0 0.0 0.9 0.00 0.00 0.00 90 1007.5
20260831160539 39 67 0.0 0.9 0.00 0.00 0.00 90 1007.4
20260831160058 40 67 0.0 0.9 0.00 0.00 0.00 90 1007.2
20260831155540 40 0 0.0 2.6 0.00 0.00 0.00 90 1007.2
20260831155040 40 0 0.0 2.6 0.00 0.00 0.00 90 1007.1
20260831154615 39 67 0.9 1.7 0.00 0.00 0.00 90 1007.1
20260831154041 40 0 0.0 1.7 0.00 0.00 0.00 88 1007.0
20260831153540 40 0 0.0 2.6 0.00 0.00 0.00 89 1006.9
20260831153059 41 67 0.9 2.6 0.00 0.00 0.00 90 1007.0
20260831152538 40 67 1.7 3.5 0.00 0.00 0.00 90 1006.8
20260831152036 41 78 1.7 3.5 0.00 0.00 0.00 90 1006.6
20260831151555 41 71 1.7 3.5 0.00 0.00 0.00 90 1006.6
20260831151147 41 71 1.7 3.5 0.00 0.00 0.00 89 1006.7
20260831150539 41 74 1.7 1.7 0.00 0.00 0.00 89 1006.5
20260831150053 41 0 0.0 0.9 0.00 0.00 0.00 89 1006.4
20260831145539 41 74 0.0 1.7 0.00 0.00 0.00 89 1006.5
20260831145039 42 74 0.0 1.7 0.00 0.00 0.00 89 1006.4
20260831144549 42 74 0.9 1.7 0.00 0.00 0.00 89 1006.3
20260831144039 42 74 0.9 2.6 0.00 0.00 0.00 89 1006.5
20260831143539 42 74 0.0 2.6 0.00 0.00 0.00 89 1006.5
20260831143057 42 76 1.7 3.5 0.00 0.00 0.00 90 1006.6
20260831142540 42 62 0.9 3.5 0.00 0.00 0.00 90 1006.5
20260831142039 41 123 2.6 3.5 0.00 0.00 0.00 90 1006.7
20260831141607 41 80 0.9 2.6 0.00 0.00 0.00 90 1006.7
20260831141040 41 0 0.0 2.6 0.00 0.00 0.00 90 1006.6
20260831140541 41 66 0.0 2.6 0.00 0.00 0.00 91 1006.5
20260831140052 41 0 0.0 3.5 0.00 0.00 0.00 90 1006.5
20260831135539 42 0 0.9 3.5 0.00 0.00 0.00 90 1006.5
20260831135039 42 88 1.7 3.5 0.00 0.00 0.00 90 1006.4
20260831134550 42 61 0.0 0.9 0.00 0.00 0.00 90 1006.2
20260831134039 42 0 0.0 0.9 0.00 0.00 0.00 90 1006.1
20260831133539 42 61 0.0 0.9 0.00 0.00 0.00 91 1006.0
20260831133047 42 61 0.0 3.5 0.00 0.00 0.00 91 1006.0
20260831132539 42 0 1.7 3.5 0.00 0.00 0.00 91 1005.8
20260831132040 41 0 0.0 0.9 0.00 0.00 0.00 91 1005.8
20260831131601 41 124 0.0 0.9 0.00 0.00 0.00 91 1005.7
20260831131040 41 124 0.0 0.9 0.00 0.00 0.00 91 1005.6
20260831130540 41 124 0.0 0.9 0.00 0.00 0.00 90 1005.4
20260831130053 41 124 0.0 1.7 0.00 0.00 0.00 91 1005.3
20260831125541 41 124 0.0 1.7 0.00 0.00 0.00 90 1005.3
20260831125040 41 124 0.9 1.7 0.00 0.00 0.00 91 1005.2
20260831124548 40 0 0.0 1.7 0.00 0.00 0.00 90 1005.2
20260831124040 40 0 0.0 1.7 0.00 0.00 0.00 89 1005.2
20260831123539 41 127 0.9 1.7 0.00 0.00 0.00 87 1005.1
20260831123047 42 0 0.0 0.0 0.00 0.00 0.00 88 1005.1
20260831122539 42 230 0.0 0.9 0.00 0.00 0.00 89 1005.0
20260831122042 42 230 0.0 0.9 0.00 0.00 0.00 89 1004.9
20260831121558 41 0 0.0 0.0 0.00 0.00 0.00 86 1004.9
20260831121038 42 0 0.0 0.0 0.00 0.00 0.00 85 1004.8
20260831120538 43 0 0.0 0.9 0.00 0.00 0.00 87 1004.9
20260831120109 43 0 0.0 1.7 0.00 0.00 0.00 87 1004.6
20260831115539 43 230 0.0 2.6 0.00 0.00 0.00 86 1004.7
20260831115039 44 230 1.7 2.6 0.00 0.00 0.00 87 1004.5
20260831114602 44 230 0.9 1.7 0.00 0.00 0.00 86 1004.4
20260831114039 44 230 0.9 2.6 0.00 0.00 0.00 86 1004.4
20260831113540 44 232 0.9 2.6 0.00 0.00 0.00 85 1004.2
20260831113101 44 236 1.7 3.5 0.00 0.00 0.00 84 1004.2
20260831112539 45 249 2.6 3.5 0.00 0.00 0.00 85 1004.1
20260831112038 45 250 2.6 4.3 0.00 0.00 0.00 85 1004.0
20260831111556 45 250 3.5 4.3 0.00 0.00 0.00 85 1004.0
20260831111038 45 250 2.6 4.3 0.00 0.00 0.00 86 1004.0
20260831110540 45 242 2.6 3.5 0.00 0.00 0.00 86 1004.0
20260831110049 45 244 1.7 2.6 0.00 0.00 0.00 86 1004.0
20260831105540 45 244 1.7 2.6 0.00 0.00 0.00 85 1004.0
20260831105039 45 244 1.7 3.5 0.00 0.00 0.00 85 1003.9
20260831104606 45 244 1.7 3.5 0.00 0.00 0.00 85 1003.9
20260831104039 45 246 1.7 3.5 0.00 0.00 0.00 86 1003.9
20260831103538 45 220 1.7 2.6 0.00 0.00 0.00 86 1003.9
20260831103056 45 219 1.7 2.6 0.00 0.00 0.00 85 1003.8
20260831102538 46 219 2.6 3.5 0.00 0.00 0.00 84 1003.7
20260831102038 46 219 1.7 4.3 0.00 0.00 0.00 83 1003.8
20260831101603 46 219 2.6 4.3 0.00 0.00 0.00 82 1003.8
20260831101040 47 227 3.5 4.3 0.00 0.00 0.00 81 1003.7
20260831100538 47 227 3.5 4.3 0.00 0.00 0.00 80 1003.7
20260831100052 48 222 3.5 5.2 0.00 0.00 0.00 79 1003.5
20260831095535 49 229 3.5 6.1 0.00 0.00 0.00 78 1003.3
20260831095039 50 229 4.3 7.8 0.00 0.00 0.00 77 1003.2
20260831094558 51 228 5.2 7.8 0.00 0.00 0.00 75 1003.1
20260831094039 51 232 6.1 11.3 0.00 0.00 0.00 73 1003.0
20260831093540 52 238 6.1 11.3 0.00 0.00 0.00 71 1003.0
20260831093059 52 246 7.8 11.3 0.00 0.00 0.00 69 1002.9
20260831092539 52 249 7.0 10.4 0.00 0.00 0.00 71 1002.8
20260831092040 52 249 6.1 10.4 0.00 0.00 0.00 74 1002.7
20260831091553 52 245 7.0 10.4 0.00 0.00 0.00 75 1002.7
20260831091038 52 248 4.3 8.7 0.00 0.00 0.00 77 1002.7
20260831090539 52 258 5.2 11.3 0.00 0.00 0.00 76 1002.6
20260831090057 53 262 6.1 13.9 0.00 0.00 0.00 75 1002.6
20260831085539 52 267 7.0 13.9 0.00 0.00 0.00 77 1002.3
20260831085039 52 243 4.3 12.2 0.00 0.00 0.00 77 1002.4
20260831084557 53 248 5.2 12.2 0.00 0.00 0.00 77 1002.3
20260831084038 53 267 7.0 12.2 0.00 0.00 0.00 77 1002.3
20260831083538 53 294 5.2 13.0 0.00 0.00 0.00 77 1002.3
20260831083057 53 279 6.1 14.8 0.00 0.00 0.00 75 1002.1
20260831082538 53 265 7.8 14.8 0.00 0.00 0.00 74 1002.1
20260831082039 53 232 7.8 15.6 0.00 0.00 0.00 75 1001.9
20260831081604 54 277 8.7 15.6 0.00 0.00 0.00 73 1001.8